070703 G96  0.2+  0.6-    080317 J76  0.2-  0.0     080525 704  0.5+  1.5+  
070703 G96  0.2-  0.6-    080318 J76  0.1+  0.1+    080525 704  1.1-  0.6+  
070703 G96  0.3-  0.5-    080318 J76  0.3-  0.6-    080525 704  0.4+  0.1-  
070703 G96  0.2+  0.5-    080325 J76  0.4-  0.4-    080525 704  0.6+  0.2-  
070705 850  0.7+  1.3+    080325 J76  0.3-  0.3-    080525 704  1.7-  0.8-  
070705 850  0.8+  1.7-    080325 J76  0.4-  0.0     080526 367  0.5-  0.2-  
070705 850  0.3+  1.2-    080325 104  0.3-  0.2-    080526 367  0.8-  0.2-  
070705 850  0.9+  1.6+    080325 104  0.9-  0.2+    080528 704  0.1+  0.9+  
070707 204  0.6+  0.5+    080325 104  0.6-  0.2-    080528 704 (1.6+  2.2-) 
070713 215  0.4+  0.3-    080325 104  0.3-  0.2-    080528 704  0.2+  0.8-  
070713 204  0.2+  0.1+    080327 467  0.5-  0.3-    080528 704 (2.4+  1.9-) 
070713 204  0.2-  0.2-    080327 467  0.6-  0.4-    080528 704 (0.6-  2.9-) 
070714 A77  0.1+  0.2+    080327 467  0.9-  0.6-    080528 467  0.6-  0.6-  
070714 A77  1.0+  0.3+    080328 A81  0.7-  0.8-    080528 467  0.7-  0.7-  
070714 A77  0.5+  0.3-    080328 A81  0.8-  0.7-    080528 467  0.5-  0.4-  
071103 G96  0.1+  0.9-    080328 A81  0.4-  0.6-    080529 B37  0.4-  0.3+  
071103 G96  0.1-  0.9-    080329 703  0.7+  1.3+    080529 B37  0.1-  0.3+  
071103 G96  0.2+  1.2-    080329 703  0.1+  1.0+    080529 B37  0.4+  1.1-  
071103 G96  0.5-  1.0-    080329 703  0.1-  0.3-    080626 E12  0.2-  0.6-  
071123 349  0.4+  0.8+    080329 703  0.2-  0.4-    081222 321  0.1-  0.1-  
071123 349  0.3+  0.6+    080329 349  0.5+  0.2+    081222 321  1.3+  0.2-  
071124 349  1.2+  0.4-    080329 349  0.7+  0.1-    081222 321  0.2-  0.2-  
071124 349  1.0+  0.2-    080330 704  1.6+  0.3+    081226 415  0.6+  0.3+  
071215 349  0.5+  0.1-    080330 704  0.5+  0.1-    081226 415  0.4+  0.3-  
071215 349  0.4+  0.1-    080330 704  0.7+  0.2+    081228 415  0.1+  0.1+  
071219 704  0.3+  1.7+    080330 704  1.2+  0.6+    081228 415  0.6+  0.9-  
071219 704  0.8+  0.3+    080330 704  1.8+  0.8-    2009/                   
071219 704 (2.3+  1.3+)   080330 400  0.7-  0.6-    090102 J24 (2.1+  4.2-) 
071219 704  1.7+  1.2-    080330 400  1.0-  0.4-    090102 J24 (1.5+  2.8-) 
2008/                     080330 400  0.8-  0.4-    090102 J24  0.2+  0.2+  
080112 B40  0.4-  0.8-    080401 B49  0.5-  0.2-    090104 474  0.9+  0.1-  
080112 B40  0.7-  0.5-    080401 J51  0.2+  0.2+    090104 474  0.6+  0.2-  
080112 B40  0.4+  0.1-    080401 J51  0.5+  0.4+    090104 474  0.5+  0.1-  
080119 G96  0.3-  0.6+    080401 J51  0.5+  0.1+    090104 423  0.9+  0.1+  
080119 G96  0.1-  0.2+    080402 J87  1.1-  0.8-    090104 423  0.1+  0.0   
080119 G96  0.4-  0.6+    080402 J87  0.3-  0.7-    090105 423  0.0   0.3+  
080119 G96  0.2-  0.1+    080402 J87  0.5-  0.5-    090105 423  0.0   0.4+  
080208 704  0.5+  0.3+    080403 704  0.6+  0.4+    090111 844  1.1+  0.4-  
080208 704  0.3-  0.3+    080403 704  0.3+  1.1+    090111 844  0.5+  1.5-  
080208 704  0.3-  0.2+    080403 704  0.0   0.7+    090111 844  1.0+  0.2-  
080208 704  0.4-  0.1+    080403 704  0.1+  0.1+    090111 844  0.5+  0.2+  
080208 704  1.0-  0.0     080403 704  0.3-  0.5+    090111 844  0.0   0.2+  
080208 349  0.4+  0.5-    080403 900  1.3-  1.0-    090125 415  0.6+  1.1-  
080208 349  0.4+  0.6-    080403 900  0.0   0.8-    090125 415  0.6+  0.5-  
080211 130  0.5+  0.7-    080405 235  0.1+  0.1-    090129 808  0.1-  1.2-  
080211 130  0.1+  0.1-    080406 939  0.0   0.1+    090129 808 (3.2-  2.2-) 
080211 130  0.0   0.6-    080406 204  0.7-  0.1-    090129 808  0.3-  0.9-  
080211 130  0.3+  0.6-    080406 939  0.2-  0.1-    090129 415  0.8+  0.9+  
080213 204  0.3-  0.6-    080406 204  0.0   0.0     090129 415  0.0   0.6-  
080213 204  0.1-  0.5-    080406 939  0.2-  0.0     090130 423  0.2+  0.0   
080213 699  0.1-  0.0     080406 703  1.0+  1.8+    090130 423  0.1+  0.7-  
080213 699  0.3+  0.5-    080406 703 (1.2+  2.0+)   090131 415  0.2+  0.4+  
080213 699  0.4-  0.6+    080406 703 (1.9+  2.7+)   090131 415  0.7-  0.9-  
080213 699  0.5-  0.7+    080406 703 (1.4+  2.3+)   090207 E94 (1.6+  3.6+) 
080214 703  0.9-  0.3+    080406 349  0.3+  0.4+    090207 E94  1.3+  1.6+  
080214 703  0.7-  1.8+    080406 349  0.4+  0.5+    090207 E94  0.7+  0.6-  
080214 703 (1.0-  2.2+)   080406 349  0.5+  0.4+    090212 I20  0.9+  0.0   
080214 703  1.3-  1.8+    080407 B59  0.2+  0.6-    090212 I20  0.6+  0.5-  
080214 355  0.5-  0.4+    080407 B59  1.1-  1.2-    090217 467  0.4+  0.2+  
080214 355  1.1+  0.5+    080407 B59  0.0   0.2-    090217 467  0.6-  1.3-  
080214 355  0.5+  0.0     080408 704  0.7+  1.0+    090217 467  1.0+  0.1+  
080214 355  0.0   0.2+    080408 704  1.2-  0.2+    090219 808  0.5-  0.7-  
080216 A06  0.2-  0.5-    080408 704  0.4+  0.7+    090219 808 (2.6-  0.6-) 
080229 D88  0.3+  0.0     080408 704  0.3+  0.4+    090219 808  0.4-  0.1-  
080229 D88  0.7+  0.2-    080408 704  0.2+  0.6+    090223 808  1.0-  0.4-  
080229 D88  0.1-  0.7+    080408 900  0.3+  0.3+    090223 808  0.5-  0.2-  
080229 349  0.3+  0.1-    080408 900  0.1+  0.4-    090223 808  0.4+  0.1-  
080229 349  0.2+  0.0     080420 E85  1.7-  0.4+    090223 467  0.1-  0.5-  
080229 349  0.2+  0.1-    080420 E85  1.7-  0.0     090223 467  0.2-  0.3-  
080302 J96  0.4+  0.2-    080420 E85 (3.0-  0.6-)   090223 467  0.2+  0.4+  
080302 J96  0.2+  0.0     080421 900  0.2-  0.9+    090226 415  0.8+  0.1+  
080302 J96  0.1+  0.2-    080421 900  0.3+  0.0     090226 415  1.1-  0.1-  
080303 B37  0.7-  0.1-    080422 J79  0.4-  0.2+    090304 474  1.0+  0.9-  
080303 B37  1.0-  0.1+    080422 J79  0.2-  0.1+    090304 474  0.5+  1.0-  
080303 B37  0.4-  0.1+    080422 J79  1.9+  0.2+    090304 474  0.6+  1.0-  
080303 703  0.3-  1.1-    080423 J51  0.3-  0.6+    090304 474  0.1+  0.0   
080303 703  1.3-  0.4-    080423 J51  0.0   0.2+    090306 415  0.2+  0.3-  
080303 703  0.7-  1.1-    080423 J51  0.1+  0.1-    090306 415  0.4+  0.1-  
080303 703  0.1+  0.5-    080424 704  0.7+  0.3-    090307 423  0.0   0.4+  
080304 G96  0.2-  0.4+    080424 704  0.2+  0.8-    090307 423  0.0   0.0   
080304 G96  0.1-  0.1+    080424 703  1.4-  0.4+    090316 423  0.2+  0.2-  
080304 G96  0.1-  0.7+    080424 704  0.1-  0.2-    090316 415  0.2+  0.1-  
080304 G96  0.1-  1.4+    080424 703  1.4-  0.4-    090316 415  0.0   0.3-  
080304 D29  0.3-  0.3+    080424 704  0.0   0.2+    090316 423  0.2-  0.2+  
080304 D29 (0.9+  2.4+)   080424 703  1.1-  0.2+    090316 E16  0.2-  0.2+  
080304 D29  0.2-  1.8+    080424 703 (2.1-  0.3-)   090316 E16  0.6-  0.3+  
080304 D29  0.1+  0.8+    080424 704  0.3+  0.1+    090320 415  0.5+  0.6-  
080306 118  0.6+  0.5-    080425 J40  0.6+  0.3+    090320 415  0.3-  0.4-  
080306 118  0.3+  0.4-    080425 J40  0.8+  0.5+    090321 E12  0.7+  1.0+  
080306 118  0.0   0.1+    080425 J40  0.0   0.7-    090321 E12  0.9+  0.8+  
080307 945  0.9+  0.5-    080426 629  0.1-  0.5-    090321 E12 (0.3+  2.2+) 
080307 945  0.2+  0.1-    080426 629  0.9-  0.5-    090321 E12  0.0   0.9+  
080307 945  1.8-  0.2+    080429 704  0.8+  0.3+    090328 415  0.2+  0.2-  
080307 J76  0.5+  0.2+    080429 704  1.4+  0.2-    090328 415  0.7-  0.1+  
080307 J76  0.1+  0.2+    080429 704  1.3+  1.7-    090328 415  0.1-  0.5+  
080307 J76  0.1+  0.1-    080429 704  0.9+  0.1-    090422 E12  0.3+  0.6+  
080308 704  0.1+  0.7+    080429 704  0.9-  0.2-    090422 E12  0.6+  0.5+  
080308 704  0.5+  0.9+    080430 E85  0.6-  0.4-    090516 467  0.8+  0.9+  
080308 704  0.6-  0.6+    080430 E85  1.0-  0.3-    090516 467  0.7+  1.0+  
080308 704  0.1+  0.8+    080430 E85  0.7-  0.6-    090516 467  0.7+  1.1+  
080308 704  0.5-  0.5+    080430 J79  0.1-  0.4-    090603 E85  1.1+  1.4+  
080309 J51  0.1-  0.3+    080430 J79 (3.4+  2.5-)   090603 E85  1.2+  0.7+  
080309 J51  0.0   0.3+    080430 J79 (2.6+  2.7-)   090603 E85  0.8+  0.8+  
080309 J51  0.3+  0.2+    080430 A77  0.0   0.1-                            
080310 703  0.1-  1.2+    080430 A77  0.1-  0.2-                            


    C/2007 N3 (Lulin)
Epoch 2009 Jan. 9.0 TT = JDT 2454840.5  
T 2009 Jan. 10.64009 TT                                 Nakano
q   1.2122575            (2000.0)            P               Q
z  +0.0000165      Peri.  136.86185     -0.92920786     -0.36941151
 +/-0.0000002      Node   338.53455     -0.34631442     +0.86061169
e   0.9999800      Incl.  178.37351     -0.12899252     +0.35054623
From 3376 observations 2007 July 11-2009 Aug. 31, mean residual 0".56.
   (1/a)org.= +0.000022, (1/a)fut.= +0.000818 (+/-0.000000), Q= 9.
   The comet has passed 2.46 AU from Jupiter on 2008 June 24.0,
   0.099 AU from Mars on 2008 Nov. 22.5 and 0.41 AU from Earth on
   2009 Feb. 24.3 UT.
Residuals in seconds of arc 
2007/                     080812 J38  0.2+  0.1+    090308 A81  0.2-  0.4+  
070711 D35  0.3+  0.6+    080812 J38  0.2+  0.3+    090308 A81  0.2-  0.5+  
070711 D35  0.1-  0.6+    080812 J38  0.3+  0.3+    090308 J70 (2.1-  1.0+) 
070711 D35  0.5+  0.6+    080815 349  0.2+  0.3+    090308 J70 (2.0-  1.0+) 
070713 470  0.2+  0.6+    080815 349  0.1+  0.3+    090308 J70 (2.1-  0.9+) 
070713 470  0.3+  0.5+    080815 349  0.0   0.2+    090308 J70 (2.0-  0.8+) 
070713 474  0.1-  0.7+    080815 900  0.0   0.1+    090308 J70 (2.6-  0.9+) 
070713 474  0.1-  0.6+    080815 900  0.0   0.2+    090308 J70 (2.0-  0.7+) 
070713 474  0.2-  0.7+    080816 213  0.1+  0.3-    090308 J70 (2.3-  0.8+) 
070713 D35  0.2+  0.5+    080816 213  0.2+  0.0     090308 J70  1.9-  0.8+  
070713 D35  0.6+  0.9+    080816 213  0.3+  0.1+    090308 J70 (2.2-  0.9+) 
070713 D35  0.7+  0.5+    080816 J51  0.0   0.2+    090308 J70 (2.0-  0.9+) 
070713 D35  0.1+  0.7+    080816 J47  0.0   0.4+    090308 J70 (2.3-  0.8+) 
070713 D35  0.0   0.3+    080816 J47  0.3+  0.5+    090308 J70  1.9-  0.7+  
070713 D35  0.1+  0.3+    080816 J51  0.0   0.1+    090308 J70  1.9-  1.0+  
